Location: Most
(50.5330°N, 13.6500°E)
Time: 06:07:27
(UTC+01:00)

N. Korean satellite - Pass Details

Date: 25 October 2021
Orbit: 446 x 495 km, 97.3° (Epoch: 04 December)

Event Time Altitude Azimuth Distance (km) Brightness Sun altitude
Rises 05:30:50 0° 26° (NNE) 2,598 10.7 -21.8°
Reaches altitude 10° 05:33:24 10° 45° (NE) 1,706 10.0 -21.4°
Maximum altitude 05:36:05 19° 91° (E) 1,233 9.5 -21.0°
Drops below altitude 10° 05:38:44 10° 139° (SE) 1,683 9.7 -20.6°
Sets 05:41:14 0° 157° (SSE) 2,550 10.4 -20.2°
